GW3154 Weather Reports


Display with metric or nautical units.
time (UTC)temp
F
wind
direction
speed
MPH
gust
MPH
rain 1hr
in
rain 24hr
in
rain mn
in
humidity
%
barometer
mb
20260502194800 61 67 0.0 0.0 0.00 0.00 0.00 73 1016.3
20260502193257 60 300 3.0 5.0 0.00 0.00 0.00 74 1016.6
20260502191758 61 55 1.0 1.0 0.00 0.00 0.00 74 1016.5
20260502190255 60 257 2.0 2.0 0.00 0.00 0.00 74 1016.5
20260502184755 61 31 1.0 1.0 0.00 0.00 0.00 75 1016.8
20260502183250 57 102 1.0 1.0 0.00 0.00 0.00 81 1017.3
20260502181749 57 84 0.0 1.0 0.00 0.00 0.00 85 1017.3
20260502180249 57 229 1.0 1.0 0.00 0.00 0.00 85 1017.0
20260502170237 56 158 2.0 3.0 0.00 0.00 0.00 82 1017.4
20260502163228 55 80 0.0 0.0 0.00 0.00 0.00 81 1017.5
20260502161725 56 209 1.0 1.0 0.00 0.00 0.00 80 1017.5
20260502160224 55 139 1.0 1.0 0.00 0.00 0.00 81 1017.6
20260502151715 52 288 2.0 3.0 0.00 0.00 0.00 86 1017.6
20260502150211 52 261 0.0 0.0 0.00 0.00 0.00 86 1017.4
20260502130144 50 328 1.0 1.0 0.00 0.00 0.00 91 1017.4
20260502123138 50 324 0.0 0.0 0.00 0.00 0.00 89 1017.4
20260502121635 51 324 0.0 0.0 0.00 0.00 0.00 88 1017.5
20260502120132 51 262 1.0 1.0 0.00 0.00 0.00 88 1017.6
20260502114627 51 284 0.0 1.0 0.00 0.00 0.00 88 1017.4
20260502113126 51 63 0.0 0.0 0.00 0.00 0.00 88 1017.5
20260502111624 50 50 0.0 0.0 0.00 0.00 0.00 87 1017.3
20260502110122 51 51 0.0 0.0 0.00 0.00 0.00 85 1017.3
20260502104620 51 16 2.0 2.0 0.00 0.00 0.00 85 1017.3
20260502103119 52 92 0.0 0.0 0.00 0.00 0.00 84 1017.3
20260502101615 52 61 0.0 0.0 0.00 0.00 0.00 84 1017.4
20260502100110 53 74 0.0 0.0 0.00 0.00 0.00 82 1017.4
20260502070039 55 225 0.0 1.0 0.00 0.00 0.00 79 1018.3
20260502064538 55 315 1.0 1.0 0.00 0.00 0.00 80 1018.2
20260502063036 55 76 0.0 0.0 0.00 0.00 0.00 81 1018.3
20260502061535 55 75 0.0 0.0 0.00 0.00 0.00 82 1018.2
20260502060030 55 81 0.0 0.0 0.00 0.00 0.00 82 1018.4
20260502054530 55 60 0.0 0.0 0.00 0.00 0.00 83 1018.0
20260502053028 55 60 0.0 0.0 0.00 0.00 0.00 83 1018.2
20260502051527 55 61 0.0 0.0 0.00 0.00 0.00 83 1018.0
20260502050023 55 68 0.0 0.0 0.00 0.00 0.00 82 1018.0
20260502044519 55 85 0.0 0.0 0.00 0.00 0.00 82 1017.8
20260502043015 55 295 2.0 2.0 0.00 0.00 0.00 81 1017.6
20260502041511 56 242 0.0 1.0 0.00 0.00 0.00 80 1017.6
20260502040008 56 332 4.0 6.0 0.00 0.00 0.00 78 1017.3
20260502034505 57 237 3.0 3.0 0.00 0.00 0.00 77 1017.3
20260502033003 57 20 1.0 2.0 0.00 0.00 0.00 76 1016.8
20260502031500 58 289 3.0 5.0 0.00 0.00 0.00 74 1016.6
20260502025959 60 331 1.0 2.0 0.00 0.00 0.00 71 1016.4
20260502024458 61 236 1.0 2.0 0.00 0.00 0.00 70 1016.2
20260502022956 62 25 0.0 0.0 0.00 0.00 0.00 69 1016.0
20260502021453 63 188 1.0 1.0 0.00 0.00 0.00 67 1016.3
20260502015950 64 242 1.0 1.0 0.00 0.00 0.00 66 1016.0
20260502014447 67 220 0.0 1.0 0.00 0.00 0.00 64 1015.9
20260502012948 68 228 1.0 1.0 0.00 0.00 0.00 61 1015.8
20260502011444 70 203 1.0 2.0 0.00 0.00 0.00 58 1015.8
20260502005940 70 35 1.0 1.0 0.00 0.00 0.00 59 1015.7
20260502004437 73 305 3.0 6.0 0.00 0.00 0.00 56 1015.7
20260502002933 74 318 0.0 1.0 0.00 0.00 0.00 55 1015.5
20260502001431 74 293 3.0 5.0 0.00 0.00 0.00 54 1015.5
20260501235929 73 268 1.0 1.0 0.00 0.00 0.00 56 1015.7
20260501234429 73 187 0.0 0.0 0.00 0.00 0.00 58 1015.7
20260501232926 74 185 0.0 1.0 0.00 0.00 0.00 57 1015.9
20260501231425 74 206 0.0 0.0 0.00 0.00 0.00 58 1015.8
20260501225924 72 203 0.0 0.0 0.00 0.00 0.00 59 1016.2
20260501224421 74 202 1.0 3.0 0.00 0.00 0.00 58 1016.2
20260501222921 73 175 2.0 2.0 0.00 0.00 0.00 58 1016.4
20260501221419 72 224 2.0 2.0 0.00 0.00 0.00 62 1016.7
20260501215915 72 161 1.0 2.0 0.00 0.00 0.00 56 1016.9
20260501214414 73 196 1.0 1.0 0.00 0.00 0.00 61 1016.9
20260501212914 72 178 0.0 1.0 0.00 0.00 0.00 56 1017.3
20260501211412 71 156 2.0 2.0 0.00 0.00 0.00 59 1017.3
20260501205908 71 186 0.0 1.0 0.00 0.00 0.00 63 1017.4
20260501204404 69 179 0.0 0.0 0.00 0.00 0.00 64 1017.6
20260501202901 69 187 1.0 1.0 0.00 0.00 0.00 63 1017.7
20260501201357 68 213 3.0 6.0 0.00 0.00 0.00 66 1018.1
20260501195854 68 134 0.0 0.0 0.00 0.00 0.00 66 1018.3